GOES 17 (43226 NORAD) Tracking and Keplerian Element Data

This shows tracking and keplerian element data for the satellite.

Feedback or suggestion? Click here.




ElementValue
Catalog43226
NameGOES 17
Epoch Orbit2153
Epoch Day12.93070825
Epoch Year2024
RAAN100.8012
Inclination0.007
Eccentricity0.000153
Argument of Perigee169.498
Mean Anonmoly71.9884
Mean Motion1.00270826
Decay Rate-8.2E-07
L11 43226U 18022A 24012.93070825 -.00000082 00000+0 00000+0 0 9992
L22 43226 0.0070 100.8012 0001530 169.4980 71.9884 1.00270826 21538



Live tracking and technical data element details for GOES 17 (NORAD 43226). GOES 17 can be tracked NOW for your location showing map with azimuth and elevation plus other details from your city location.







IsCatalogInMostPopularTable: catalog: 43226, numindb: 935
Update: records affected: 1



GetName: 43226 GOES 17

Hit Count: updated at: Fri, 01 Mar 2024 11:01:13 GMT